This demonstration page uses our WeatherBlox Daily Observations layout. Learn more.

Left ArrowRight Arrow

39.01783, -85.05884

Hourly Observations for March 16, 2018

Temp ( °F °C ) Dew Point ( °F °C ) Humidity (%) Winds ( mph kmh ) Pressure ( in mb ) Visibility ( mi km ) Precip ( " mm )
12:52 am 00:52 Mostly Clear 39 3.9 26 -3.3 60 60 N 18 30 29.93 1014 10 16 N/A
1:52 am 01:52 Mostly Clear 37 2.8 23 -5 57 57 N 20 31 29.96 1014 10 16 N/A
2:52 am 02:52 Clear 34 1.1 22 -5.6 61 61 N 15 24 29.97 1015 10 16 N/A
3:52 am 03:52 Clear 31 -0.6 20 -6.7 64 64 N 14 22 29.99 1016 10 16 N/A
4:52 am 04:52 Clear 30 -1.1 17 -8.3 58 58 N 16 26 30.02 1017 10 16 N/A
5:52 am 05:52 Clear 28 -2.2 11 -11.7 49 49 N 16 26 30.05 1018 10 16 N/A
6:52 am 06:52 Clear 26 -3.3 10 -12.2 51 51 NNE 12 19 30.08 1019 10 16 N/A
7:52 am 07:52 Mostly Sunny 26 -3.3 10 -12.2 51 51 NE 12 19 30.11 1020 10 16 N/A
8:52 am 08:52 Sunny 27 -2.8 10 -12.2 49 49 NNE 12 19 30.15 1021 10 16 N/A
9:52 am 09:52 Partly Cloudy 29 -1.7 10 -12.2 45 45 NNE 13 20 30.17 1022 10 16 N/A
10:52 am 10:52 Mostly Cloudy 31 -0.6 11 -11.7 43 43 NE 12 19 30.18 1022 10 16 N/A
11:52 am 11:52 Mostly Cloudy 33 0.6 12 -11.1 42 42 ENE 8 13 30.18 1022 10 16 N/A
12:52 pm 12:52 Mostly Cloudy 36 2.2 12 -11.1 37 37 ENE 10 17 30.19 1022 10 16 N/A
1:52 pm 13:52 Mostly Cloudy 38 3.3 11 -11.7 33 33 NE 10 17 30.17 1022 10 16 N/A
2:52 pm 14:52 Mostly Cloudy 41 5 12 -11.1 30 30 E 10 17 30.14 1021 10 16 N/A
3:52 pm 15:52 Mostly Cloudy 43 6.1 13 -10.6 29 29 ENE 10 17 30.12 1020 10 16 N/A
4:52 pm 16:52 Mostly Cloudy 44 6.7 13 -10.6 28 28 NE 9 15 30.09 1019 10 16 N/A
5:52 pm 17:52 Cloudy 44 6.7 15 -9.4 31 31 ENE 13 20 30.09 1019 10 16 N/A
6:52 pm 18:52 Mostly Cloudy 42 5.6 14 -10 32 32 E 8 13 30.09 1019 10 16 N/A
7:52 pm 19:52 Cloudy 39 3.9 15 -9.4 38 38 E 8 13 30.08 1019 10 16 N/A
8:52 pm 20:52 Mostly Cloudy 38 3.3 16 -8.9 41 41 E 6 9 30.09 1019 10 16 N/A
9:52 pm 21:52 Cloudy 38 3.3 17 -8.3 43 43 E 7 11 30.06 1018 10 16 N/A
10:52 pm 22:52 Cloudy 39 3.9 17 -8.3 41 41 ENE 8 13 30.06 1018 10 16 N/A
11:52 pm 23:52 Cloudy 39 3.9 17 -8.3 41 41 E 10 17 30.03 1017 10 16 N/A

Powered by AerisWeather